Weather History for Poteau, OK

Change the Weather History Date:

Sunday, December 30, 2012

  Actual Average (KFSM) Record (KFSM)
Temperature  
Mean Temperature 30 °F 39 °F  
Max Temperature 41 °F 49 °F 79 °F (1951)
Min Temperature 19 °F 29 °F 2 °F (1983)
Degree Days  
Heating Degree Days 35 26  
Month to date heating degree days 708  
Since 1 July heating degree days 1273  
Moisture  
Dew Point 28 °F    
Average Humidity 85    
Maximum Humidity 100    
Minimum Humidity 61    
Precipitation  
Precipitation 0.00 in 0.09 in 1.22 in (2006)
Month to date precipitation 3.21  
Year to date precipitation 45.38  
Sea Level Pressure  
Sea Level Pressure 30.39 in    
Wind  
Wind Speed 0 mph (South)    
Max Wind Speed 4 mph    
Max Gust Speed -    
Visibility 9 miles    
Events Rain , Snow    
T = Trace of Precipitation, MM = Missing Value Source: NWS Daily Summary

Daily Weather History Graph

Daily Weather History Graph

Search for Another Location

Airport:

Trip Planner

Search our weather history database for the weather conditions in past years. The results will help you decide how hot, cold, wet, or windy it might be!

Date:

Astronomy

Dec. 30, 2012 Rise Set
Actual Time 7:26 AM CST 5:16 PM CST
Civil Twilight 6:58 AM CST 5:44 PM CST
Nautical Twilight 6:26 AM CST 6:16 PM CST
Astronomical Twilight 5:55 AM CST 6:47 PM CST
Moon 7:42 PM CST (12/30) 8:41 AM CST (12/30)
Length of Visible Light 10h 46m
Length of Day
9h 50m
Waning Gibbous, 95% of the Moon is Illuminated
Dec 30
Waning Gibbous
Jan 4
Last Quarter
Jan 11
New
Jan 18
First Quarter
Jan 26
Full

Hourly Weather History & Observations

Time (CST) Temp. Windchill Dew Point Humidity Pressure Visibility Wind Dir Wind Speed Gust Speed Precip Events Conditions
12:15 AM 24.8 °F - 23.0 °F 93% 30.46 in 7.0 mi Calm Calm - N/A   Clear
12:55 AM 21.2 °F - 21.2 °F 100% 30.46 in 7.0 mi Calm Calm - N/A   Clear
1:15 AM 21.2 °F - 21.2 °F 100% 30.46 in 7.0 mi Calm Calm - N/A   Clear
1:35 AM 23.0 °F - 21.2 °F 93% 30.46 in 5.0 mi Calm Calm - N/A   Clear
1:55 AM 23.0 °F - 21.2 °F 93% 30.46 in 7.0 mi Calm Calm - N/A   Clear
2:15 AM 21.2 °F 16.4 °F 19.4 °F 93% 30.47 in 7.0 mi South 3.5 mph - N/A   Clear
2:35 AM 21.2 °F - 21.2 °F 100% 30.47 in 7.0 mi Calm Calm - N/A   Clear
2:55 AM 23.0 °F - 21.2 °F 93% 30.48 in 7.0 mi Calm Calm - N/A   Clear
3:15 AM 21.2 °F 16.4 °F 21.2 °F 100% 30.48 in 7.0 mi South 3.5 mph - N/A   Clear
3:35 AM 21.2 °F 16.4 °F 21.2 °F 100% 30.47 in 7.0 mi South 3.5 mph - N/A   Clear
3:55 AM 21.2 °F - 21.2 °F 100% 30.47 in 7.0 mi Calm Calm - N/A   Clear
4:15 AM 21.2 °F - 21.2 °F 100% 30.48 in 7.0 mi Calm Calm - N/A   Clear
4:35 AM 21.2 °F - 21.2 °F 100% 30.46 in 7.0 mi Calm Calm - N/A   Clear
7:35 AM 19.4 °F - 19.4 °F 100% 30.46 in 7.0 mi Calm Calm - N/A   Clear
7:55 AM 19.4 °F 14.3 °F 19.4 °F 100% 30.48 in 7.0 mi SSW 3.5 mph - N/A   Clear
8:15 AM 21.2 °F - 21.2 °F 100% 30.48 in 7.0 mi Calm Calm - N/A   Clear
8:35 AM 23.0 °F - 23.0 °F 100% 30.48 in 7.0 mi Calm Calm - N/A   Clear
8:55 AM 24.8 °F 20.5 °F 23.0 °F 93% 30.49 in 7.0 mi South 3.5 mph - N/A   Clear
9:15 AM 26.6 °F - 24.8 °F 93% 30.48 in 10.0 mi Calm Calm - N/A   Clear
9:35 AM 26.6 °F - 26.6 °F 100% 30.48 in 10.0 mi Calm Calm - N/A   Clear
9:55 AM 28.4 °F - 26.6 °F 93% 30.48 in 10.0 mi Calm Calm - N/A   Clear
10:15 AM 30.2 °F - 28.4 °F 93% 30.48 in 10.0 mi Calm Calm - N/A   Clear
10:35 AM 32.0 °F - 30.2 °F 93% 30.48 in 10.0 mi Calm Calm - N/A   Clear
10:55 AM 32.0 °F - 30.2 °F 93% 30.48 in 10.0 mi Calm Calm - N/A   Clear
11:15 AM 32.0 °F - 30.2 °F 93% 30.46 in 10.0 mi Calm Calm - N/A   Clear
11:35 AM 33.8 °F - 30.2 °F 87% 30.45 in 10.0 mi Calm Calm - N/A   Clear
11:55 AM 33.8 °F - 30.2 °F 87% 30.44 in 10.0 mi Calm Calm - N/A   Clear
12:15 PM 35.6 °F - 32.0 °F 87% 30.43 in 10.0 mi Calm Calm - N/A   Clear
12:35 PM 35.6 °F - 28.4 °F 75% 30.42 in 10.0 mi Calm Calm - N/A   Clear
12:55 PM 37.4 °F - 32.0 °F 81% 30.41 in 10.0 mi Calm Calm - N/A   Clear
1:15 PM 37.4 °F - 30.2 °F 75% 30.39 in 10.0 mi Calm Calm - N/A   Clear
1:35 PM 39.2 °F - 28.4 °F 65% 30.39 in 10.0 mi Calm Calm - N/A   Clear
1:55 PM 41.0 °F - 28.4 °F 61% 30.39 in 10.0 mi Calm Calm - N/A   Clear
2:15 PM 41.0 °F - 28.4 °F 61% 30.37 in 10.0 mi Calm Calm - N/A   Clear
2:35 PM 41.0 °F - 28.4 °F 61% 30.37 in 10.0 mi Calm Calm - N/A   Clear
2:55 PM 41.0 °F - 32.0 °F 70% 30.36 in 10.0 mi Calm Calm - N/A   Clear
3:15 PM 41.0 °F - 30.2 °F 65% 30.36 in 10.0 mi Calm Calm - N/A   Clear
3:35 PM 41.0 °F - 30.2 °F 65% 30.36 in 10.0 mi Calm Calm - N/A   Clear
3:55 PM 41.0 °F - 30.2 °F 65% 30.35 in 10.0 mi Calm Calm - N/A   Clear
4:15 PM 41.0 °F - 32.0 °F 70% 30.35 in 10.0 mi Calm Calm - N/A   Clear
4:35 PM 41.0 °F - 32.0 °F 70% 30.34 in 10.0 mi Calm Calm - N/A   Clear
4:55 PM 41.0 °F - 30.2 °F 65% 30.33 in 10.0 mi Calm Calm - N/A   Clear
5:15 PM 37.4 °F - 30.2 °F 75% 30.33 in 10.0 mi Calm Calm - N/A   Clear
5:35 PM 37.4 °F - 30.2 °F 75% 30.32 in 10.0 mi Calm Calm - N/A   Clear
5:55 PM 39.2 °F - 28.4 °F 65% 30.32 in 10.0 mi Calm Calm - N/A   Clear
6:15 PM 37.4 °F - 28.4 °F 70% 30.33 in 10.0 mi Calm Calm - N/A   Clear
6:35 PM 37.4 °F - 30.2 °F 75% 30.32 in 10.0 mi Calm Calm - N/A   Clear
6:55 PM 35.6 °F - 30.2 °F 81% 30.32 in 10.0 mi Calm Calm - N/A   Clear
7:15 PM 35.6 °F - 30.2 °F 81% 30.31 in 10.0 mi Calm Calm - N/A   Clear
7:35 PM 35.6 °F - 28.4 °F 75% 30.30 in 10.0 mi Calm Calm - N/A   Clear
7:55 PM 35.6 °F - 30.2 °F 81% 30.29 in 10.0 mi Calm Calm - N/A   Clear
8:15 PM 33.8 °F - 30.2 °F 87% 30.29 in 10.0 mi Calm Calm - N/A   Clear
8:35 PM 35.6 °F - 30.2 °F 81% 30.29 in 10.0 mi Calm Calm - N/A   Clear
8:55 PM 35.6 °F - 30.2 °F 81% 30.29 in 10.0 mi Calm Calm - N/A   Clear
9:15 PM 35.6 °F - 32.0 °F 87% 30.30 in 10.0 mi Calm Calm - N/A   Clear
9:55 PM 35.6 °F - 32.0 °F 87% 30.30 in 10.0 mi Calm Calm - N/A   Scattered Clouds
10:15 PM 37.4 °F - 32.0 °F 81% 30.30 in 10.0 mi Calm Calm - N/A   Mostly Cloudy
10:35 PM 37.4 °F - 32.0 °F 81% 30.29 in 10.0 mi Calm Calm - N/A Snow Light Snow
10:55 PM 37.4 °F - 32.0 °F 81% 30.29 in 10.0 mi Calm Calm - N/A Rain Light Rain
11:15 PM 35.6 °F - 32.0 °F 87% 30.28 in 10.0 mi Calm Calm - N/A Rain Light Rain
11:35 PM 35.6 °F - 33.8 °F 93% 30.28 in 10.0 mi Calm Calm - N/A Rain Light Rain
11:55 PM 35.6 °F - 33.8 °F 93% 30.26 in 10.0 mi Calm Calm - N/A Rain Light Rain